Weather History for Del Rio, TX

Change the Weather History Date:

Thursday, December 13, 2012

  Actual Average Record
Temperature  
Mean Temperature 48 °F 52 °F  
Max Temperature 55 °F 64 °F 83 °F (1973)
Min Temperature 41 °F 41 °F 23 °F (1966)
Degree Days  
Heating Degree Days 17 13  
Month to date heating degree days 81 151  
Since 1 July heating degree days 187 348  
Cooling Degree Days 0 0  
Month to date cooling degree days 21 0  
Year to date cooling degree days 4108 3372  
Moisture  
Dew Point 41 °F    
Average Humidity 67    
Maximum Humidity 96    
Minimum Humidity 38    
Precipitation  
Precipitation 0.00 in 0.02 in 1.21 in (1929)
Month to date precipitation T 0.24  
Year to date precipitation 13.83 19.11  
Sea Level Pressure  
Sea Level Pressure 30.18 in    
Wind  
Wind Speed 8 mph (ESE)    
Max Wind Speed 15 mph    
Max Gust Speed 20 mph    
Visibility 8 miles    
Events      
T = Trace of Precipitation, MM = Missing Value Source: NWS Daily Summary

Daily Weather History Graph

Daily Weather History Graph

Search for Another Location

Airport:

Trip Planner

Search our weather history database for the weather conditions in past years. The results will help you decide how hot, cold, wet, or windy it might be!

Date:

Astronomy

Dec. 13, 2012 Rise Set
Actual Time 7:29 AM CST 5:46 PM CST
Civil Twilight 7:03 AM CST 6:12 PM CST
Nautical Twilight 6:33 AM CST 6:42 PM CST
Astronomical Twilight 6:04 AM CST 7:11 PM CST
Moon 7:41 AM CST (12/13) 6:29 PM CST (12/13)
Length of Visible Light 11h 09m
Length of Day
10h 17m
New Moon, 0% of the Moon is Illuminated
Dec 13
New Moon
Dec 19
First Quarter
Dec 28
Full
Jan 4
Last Quarter
Jan 11
New

Hourly Weather History & Observations

Time (CST) Temp. Windchill Dew Point Humidity Pressure Visibility Wind Dir Wind Speed Gust Speed Precip Events Conditions
12:53 AM 44.1 °F 42.5 °F 23.0 °F 43% 30.20 in 10.0 mi ESE 3.5 mph - N/A   Clear
1:53 AM 43.0 °F 40.3 °F 23.0 °F 45% 30.19 in 10.0 mi SE 4.6 mph - N/A   Clear
2:53 AM 45.0 °F 41.2 °F 23.0 °F 42% 30.19 in 10.0 mi East 6.9 mph - N/A   Clear
3:53 AM 44.1 °F 40.1 °F 27.0 °F 51% 30.19 in 10.0 mi East 6.9 mph - N/A   Clear
4:53 AM 42.1 °F 40.2 °F 30.0 °F 62% 30.19 in 10.0 mi East 3.5 mph - N/A   Clear
5:53 AM 42.1 °F 38.4 °F 32.0 °F 67% 30.20 in 10.0 mi East 5.8 mph - N/A   Clear
6:53 AM 42.1 °F 39.2 °F 34.0 °F 73% 30.21 in 10.0 mi ESE 4.6 mph - N/A   Clear
7:53 AM 44.1 °F 39.5 °F 36.0 °F 73% 30.22 in 10.0 mi East 8.1 mph - N/A   Clear
8:53 AM 46.9 °F - 37.0 °F 68% 30.22 in 10.0 mi SE 9.2 mph - N/A   Scattered Clouds
9:01 AM 46.4 °F 41.9 °F 37.4 °F 71% 30.24 in 10.0 mi SE 9.2 mph - N/A   Mostly Cloudy
9:53 AM 50.0 °F - 39.0 °F 66% 30.24 in 10.0 mi SE 9.2 mph - N/A   Overcast
10:53 AM 52.0 °F - 39.0 °F 61% 30.24 in 10.0 mi ESE 11.5 mph - N/A   Overcast
11:53 AM 54.0 °F - 42.1 °F 64% 30.22 in 10.0 mi SE 13.8 mph - N/A   Overcast
12:31 PM 53.6 °F - 44.6 °F 72% 30.21 in 10.0 mi ESE 10.4 mph - N/A   Overcast
12:53 PM 51.1 °F - 46.0 °F 83% 30.18 in 8.0 mi ESE 12.7 mph - N/A   Overcast
1:04 PM 51.8 °F - 46.4 °F 82% 30.18 in 5.0 mi ESE 15.0 mph 19.6 mph N/A   Overcast
1:22 PM 50.0 °F - 48.2 °F 94% 30.17 in 2.5 mi ESE 12.7 mph 18.4 mph N/A   Overcast
1:32 PM 51.8 °F - 48.2 °F 88% 30.17 in 3.0 mi ESE 12.7 mph - N/A   Overcast
1:53 PM 51.1 °F - 48.9 °F 92% 30.15 in 2.0 mi ESE 11.5 mph - N/A   Overcast
2:53 PM 52.0 °F - 50.0 °F 93% 30.13 in 2.5 mi ESE 12.7 mph - N/A   Overcast
3:29 PM 51.8 °F - 50.0 °F 94% 30.13 in 3.0 mi ESE 11.5 mph - N/A   Overcast
3:53 PM 53.1 °F - 48.9 °F 86% 30.11 in 8.0 mi ESE 13.8 mph - N/A   Overcast
6:53 PM 53.6 °F - 48.2 °F 82% 30.13 in 10.0 mi SE 5.8 mph - N/A   Overcast
7:53 PM 54.0 °F - 48.9 °F 83% 30.12 in 10.0 mi SE 4.6 mph - N/A   Overcast
8:53 PM 54.0 °F - 48.0 °F 80% 30.13 in 10.0 mi SE 4.6 mph - N/A   Overcast
9:53 PM 55.0 °F - 50.0 °F 83% 30.13 in 10.0 mi SSE 9.2 mph - N/A   Overcast
10:53 PM 55.0 °F - 50.0 °F 83% 30.12 in 10.0 mi ESE 4.6 mph - N/A   Overcast
11:53 PM 55.4 °F - 50.0 °F 82% 30.13 in 10.0 mi SE 5.8 mph - N/A   Overcast